Radiation Dose measured at exhaust stack monitor of Fukushima Daiichi Nuclear Power Station
Date,Time,Unit 5 6 shared exhaust cylinders,Wind Direction,Wind Velocity(m/s)
2021/04/15,00:00,4.1,north-northwest,6.6
2021/04/15,00:10,3.9,north-northwest,6.0
2021/04/15,00:20,4.2,north,6.7
2021/04/15,00:30,3.9,north-northwest,8.7
2021/04/15,00:40,4.0,north-northwest,9.6
2021/04/15,00:50,4.2,north-northwest,7.9
2021/04/15,01:00,4.1,north-northwest,8.7
2021/04/15,01:10,3.8,north-northwest,7.9
2021/04/15,01:20,4.1,north-northwest,8.0
2021/04/15,01:30,4.0,north-northwest,7.9
2021/04/15,01:40,4.0,north-northwest,7.5
2021/04/15,01:50,3.9,north,6.3
2021/04/15,02:00,4.0,north-northwest,6.1
2021/04/15,02:10,3.9,north-northwest,5.2
2021/04/15,02:20,4.0,north-northwest,5.9
2021/04/15,02:30,3.9,north-northwest,4.6
2021/04/15,02:40,4.1,north-northwest,5.7
2021/04/15,02:50,4.0,north-northwest,5.5
2021/04/15,03:00,3.9,north-northwest,4.7
2021/04/15,03:10,4.0,northwest,5.6
2021/04/15,03:20,3.9,northwest,6.4
2021/04/15,03:30,4.0,northwest,5.8
2021/04/15,03:40,3.9,north-northwest,7.4
2021/04/15,03:50,4.0,northwest,7.1
2021/04/15,04:00,3.9,northwest,7.2
2021/04/15,04:10,3.8,northwest,6.2
2021/04/15,04:20,3.9,northwest,5.9
2021/04/15,04:30,3.8,northwest,5.3
2021/04/15,04:40,3.9,northwest,4.7
2021/04/15,04:50,4.1,northwest,5.3
2021/04/15,05:00,4.0,northwest,5.4
2021/04/15,05:10,3.9,west-northwest,5.9
2021/04/15,05:20,3.8,west-northwest,6.5
2021/04/15,05:30,3.9,west-northwest,5.9
2021/04/15,05:40,4.0,west-northwest,6.1
2021/04/15,05:50,4.0,northwest,5.6
2021/04/15,06:00,4.0,northwest,6.1
2021/04/15,06:10,3.8,northwest,6.0
2021/04/15,06:20,4.1,west-northwest,5.5
2021/04/15,06:30,3.9,northwest,4.8
2021/04/15,06:40,4.1,northwest,4.5
2021/04/15,06:50,3.8,west-northwest,3.8
2021/04/15,07:00,4.1,north-northwest,3.0
2021/04/15,07:10,4.0,northwest,2.9
2021/04/15,07:20,3.9,north-northwest,2.6
2021/04/15,07:30,3.9,north-northwest,3.8
2021/04/15,07:40,3.9,north,2.6
2021/04/15,07:50,3.9,north-northwest,3.9
2021/04/15,08:00,4.0,north-northwest,3.4
2021/04/15,08:10,3.8,north,3.1
2021/04/15,08:20,3.9,north-northeast,4.0
2021/04/15,08:30,3.9,northeast,4.1
2021/04/15,08:40,4.1,north-northeast,3.9
2021/04/15,08:50,3.9,northeast,4.4
2021/04/15,09:00,3.8,northeast,5.3
2021/04/15,09:10,4.0,northeast,5.0
2021/04/15,09:20,3.8,northeast,5.8
2021/04/15,09:30,4.0,northeast,5.9
2021/04/15,09:40,4.0,northeast,5.7
2021/04/15,09:50,3.8,northeast,5.8
2021/04/15,10:00,3.9,northeast,5.4
2021/04/15,10:10,4.1,east-northeast,5.6
2021/04/15,10:20,3.9,northeast,5.3
2021/04/15,10:30,3.8,northeast,4.5
2021/04/15,10:40,4.0,northeast,4.0
2021/04/15,10:50,4.0,northeast,4.0
2021/04/15,11:00,3.9,northeast,4.4
2021/04/15,11:10,3.8,northeast,5.1
2021/04/15,11:20,3.9,northeast,4.9
2021/04/15,11:30,3.9,northeast,4.3
2021/04/15,11:40,3.9,east-northeast,4.1
2021/04/15,11:50,3.9,east-northeast,4.3
2021/04/15,12:00,3.9,northeast,4.9
2021/04/15,12:10,4.0,east-northeast,4.6
2021/04/15,12:20,4.0,east-northeast,4.2
2021/04/15,12:30,4.0,northeast,5.5
2021/04/15,12:40,3.9,northeast,4.9
2021/04/15,12:50,4.0,east-northeast,4.2
2021/04/15,13:00,4.0,northeast,3.8
2021/04/15,13:10,3.9,east-northeast,4.1
2021/04/15,13:20,3.9,northeast,4.1
2021/04/15,13:30,4.0,northeast,3.1
2021/04/15,13:40,4.1,east-northeast,3.5
2021/04/15,13:50,3.9,east-northeast,2.8
2021/04/15,14:00,3.9,east,3.4
2021/04/15,14:10,4.0,east-southeast,4.6
2021/04/15,14:20,3.9,east-southeast,3.5
2021/04/15,14:30,3.7,southeast,3.7
2021/04/15,14:40,4.1,east-southeast,3.6
2021/04/15,14:50,3.9,east,3.2
2021/04/15,15:00,4.1,southeast,3.2
2021/04/15,15:10,3.9,east-southeast,2.8
2021/04/15,15:20,3.9,east-southeast,2.3
2021/04/15,15:30,4.0,southeast,3.1
2021/04/15,15:40,4.0,southeast,1.7
2021/04/15,15:50,3.9,south-southeast,3.1
2021/04/15,16:00,3.9,south-southeast,3.5
2021/04/15,16:10,3.9,south-southeast,2.9
2021/04/15,16:20,3.8,southeast,2.8
2021/04/15,16:30,4.0,southeast,3.5
2021/04/15,16:40,4.1,south-southeast,2.9
2021/04/15,16:50,3.9,south-southeast,3.4
2021/04/15,17:00,3.8,south-southeast,3.8
2021/04/15,17:10,4.0,south-southeast,4.4
2021/04/15,17:20,3.9,south-southeast,4.3
2021/04/15,17:30,4.0,south,4.6
2021/04/15,17:40,3.7,south-southeast,4.5
2021/04/15,17:50,3.9,south-southeast,3.0
2021/04/15,18:00,3.9,south,4.7
2021/04/15,18:10,3.8,south,4.7
2021/04/15,18:20,4.0,south,4.8
2021/04/15,18:30,3.8,south,5.3
2021/04/15,18:40,3.9,south,5.7
2021/04/15,18:50,3.8,south,4.4
2021/04/15,19:00,3.9,south,4.8
2021/04/15,19:10,4.0,south,4.3
2021/04/15,19:20,3.8,south-southwest,3.8
2021/04/15,19:30,4.0,south-southwest,4.8
2021/04/15,19:40,4.0,south-southwest,4.6
2021/04/15,19:50,4.0,south-southwest,5.1
2021/04/15,20:00,4.0,south-southwest,5.1
2021/04/15,20:10,4.0,south-southwest,5.2
2021/04/15,20:20,4.0,south-southwest,5.3
2021/04/15,20:30,4.0,south-southwest,5.6
2021/04/15,20:40,4.0,south,5.7
2021/04/15,20:50,3.9,south-southwest,5.8
2021/04/15,21:00,3.8,south-southwest,5.6
2021/04/15,21:10,3.8,south-southwest,5.5
2021/04/15,21:20,3.8,south,5.5
2021/04/15,21:30,3.9,south-southwest,5.9
2021/04/15,21:40,4.0,south-southwest,5.7
2021/04/15,21:50,4.0,south-southwest,5.3
2021/04/15,22:00,4.0,south-southwest,6.0
2021/04/15,22:10,3.9,south-southwest,5.8
2021/04/15,22:20,3.9,south-southwest,5.7
2021/04/15,22:30,3.9,south-southwest,6.1
2021/04/15,22:40,3.8,south-southwest,6.0
2021/04/15,22:50,3.9,south-southwest,6.1
2021/04/15,23:00,3.9,south-southwest,6.1
2021/04/15,23:10,3.9,south-southwest,6.3
2021/04/15,23:20,3.9,south-southwest,6.5
2021/04/15,23:30,4.0,south-southwest,6.3
2021/04/15,23:40,3.9,south-southwest,6.5
2021/04/15,23:50,3.9,south-southwest,6.4
